#datetime,building,power
2023-01-27T00:00:00,axn,33.86
2023-01-27T00:01:00,axn,31.15
2023-01-27T00:02:00,axn,29.51
2023-01-27T00:03:00,axn,29.34
2023-01-27T00:04:00,axn,29.08
2023-01-27T00:05:00,axn,28.77
2023-01-27T00:06:00,axn,28.85
2023-01-27T00:07:00,axn,29.07
2023-01-27T00:08:00,axn,28.99
2023-01-27T00:09:00,axn,29.03
2023-01-27T00:10:00,axn,28.89
2023-01-27T00:11:00,axn,29.17
2023-01-27T00:12:00,axn,29.07
2023-01-27T00:13:00,axn,29.07
2023-01-27T00:14:00,axn,29.25
2023-01-27T00:15:00,axn,29.23
2023-01-27T00:16:00,axn,29.34
2023-01-27T00:17:00,axn,29.57
2023-01-27T00:18:00,axn,29.38
2023-01-27T00:19:00,axn,29.92
2023-01-27T00:20:00,axn,29.22
2023-01-27T00:21:00,axn,29.87
2023-01-27T00:22:00,axn,30.11
2023-01-27T00:23:00,axn,29.27
2023-01-27T00:24:00,axn,29.36
2023-01-27T00:25:00,axn,29.93
2023-01-27T00:26:00,axn,29.82
2023-01-27T00:27:00,axn,29.52
2023-01-27T00:28:00,axn,29.35
2023-01-27T00:29:00,axn,29.56
2023-01-27T00:30:00,axn,29.48
2023-01-27T00:31:00,axn,29.67
2023-01-27T00:32:00,axn,29.56
2023-01-27T00:33:00,axn,29.32
2023-01-27T00:34:00,axn,29.32
2023-01-27T00:35:00,axn,29.38
2023-01-27T00:36:00,axn,29.46
2023-01-27T00:37:00,axn,29.53
2023-01-27T00:38:00,axn,29.49
2023-01-27T00:39:00,axn,29.56
2023-01-27T00:40:00,axn,29.74
2023-01-27T00:41:00,axn,29.76
2023-01-27T00:42:00,axn,29.86
2023-01-27T00:43:00,axn,29.69
2023-01-27T00:44:00,axn,29.73
2023-01-27T00:45:00,axn,30.35
2023-01-27T00:46:00,axn,30.08
2023-01-27T00:47:00,axn,29.78
2023-01-27T00:48:00,axn,30.19
2023-01-27T00:49:00,axn,30.45
2023-01-27T00:50:00,axn,30.28
2023-01-27T00:51:00,axn,30.26
2023-01-27T00:52:00,axn,29.98
2023-01-27T00:53:00,axn,30.24
2023-01-27T00:54:00,axn,30.01
2023-01-27T00:55:00,axn,29.64
2023-01-27T00:56:00,axn,29.65
2023-01-27T00:57:00,axn,29.74
2023-01-27T00:58:00,axn,30.11
2023-01-27T00:59:00,axn,30.08
2023-01-27T01:00:00,axn,29.02
2023-01-27T01:01:00,axn,29.92
2023-01-27T01:02:00,axn,29.57
2023-01-27T01:03:00,axn,27.41
2023-01-27T01:04:00,axn,45.46
2023-01-27T01:05:00,axn,33.13
2023-01-27T01:06:00,axn,33.20
2023-01-27T01:07:00,axn,32.01
2023-01-27T01:08:00,axn,32.23
2023-01-27T01:09:00,axn,32.35
2023-01-27T01:10:00,axn,35.30
2023-01-27T01:11:00,axn,35.05
2023-01-27T01:12:00,axn,34.80
2023-01-27T01:13:00,axn,34.96
2023-01-27T01:14:00,axn,31.88
2023-01-27T01:15:00,axn,32.07
2023-01-27T01:16:00,axn,31.84
2023-01-27T01:17:00,axn,31.82
2023-01-27T01:18:00,axn,32.84
2023-01-27T01:19:00,axn,32.18
2023-01-27T01:20:00,axn,32.18
2023-01-27T01:21:00,axn,31.90
2023-01-27T01:22:00,axn,32.11
2023-01-27T01:23:00,axn,31.53
2023-01-27T01:24:00,axn,31.72
2023-01-27T01:25:00,axn,31.50
2023-01-27T01:26:00,axn,31.53
2023-01-27T01:27:00,axn,31.61
2023-01-27T01:28:00,axn,31.60
2023-01-27T01:29:00,axn,31.51
2023-01-27T01:30:00,axn,31.56
2023-01-27T01:31:00,axn,31.40
2023-01-27T01:32:00,axn,31.42
2023-01-27T01:33:00,axn,31.36
2023-01-27T01:34:00,axn,31.26
2023-01-27T01:35:00,axn,35.67
2023-01-27T01:36:00,axn,35.52
2023-01-27T01:37:00,axn,35.40
2023-01-27T01:38:00,axn,41.88
2023-01-27T01:39:00,axn,41.69
2023-01-27T01:40:00,axn,41.52
2023-01-27T01:41:00,axn,41.71
2023-01-27T01:42:00,axn,41.69
2023-01-27T01:43:00,axn,31.26
2023-01-27T01:44:00,axn,31.38
2023-01-27T01:45:00,axn,31.39
2023-01-27T01:46:00,axn,31.36
2023-01-27T01:47:00,axn,31.29
2023-01-27T01:48:00,axn,32.23
2023-01-27T01:49:00,axn,31.29
2023-01-27T01:50:00,axn,27.19
2023-01-27T01:51:00,axn,27.06
2023-01-27T01:52:00,axn,26.87
2023-01-27T01:53:00,axn,27.18
2023-01-27T01:54:00,axn,27.08
2023-01-27T01:55:00,axn,27.01
2023-01-27T01:56:00,axn,26.92
2023-01-27T01:57:00,axn,26.89
2023-01-27T01:58:00,axn,26.82
2023-01-27T01:59:00,axn,27.11
2023-01-27T02:00:00,axn,27.03
2023-01-27T02:01:00,axn,27.21
2023-01-27T02:02:00,axn,27.00
2023-01-27T02:03:00,axn,26.87
2023-01-27T02:04:00,axn,26.83
2023-01-27T02:05:00,axn,26.87
2023-01-27T02:06:00,axn,26.73
2023-01-27T02:07:00,axn,26.86
2023-01-27T02:08:00,axn,26.92
2023-01-27T02:09:00,axn,26.85
2023-01-27T02:10:00,axn,27.42
2023-01-27T02:11:00,axn,26.65
2023-01-27T02:12:00,axn,26.77
2023-01-27T02:13:00,axn,26.92
2023-01-27T02:14:00,axn,26.78
2023-01-27T02:15:00,axn,26.64
2023-01-27T02:16:00,axn,26.73
2023-01-27T02:17:00,axn,26.55
2023-01-27T02:18:00,axn,26.92
2023-01-27T02:19:00,axn,26.70
2023-01-27T02:20:00,axn,27.06
2023-01-27T02:21:00,axn,26.71
2023-01-27T02:22:00,axn,26.74
2023-01-27T02:23:00,axn,26.68
2023-01-27T02:24:00,axn,27.20
2023-01-27T02:25:00,axn,26.69
2023-01-27T02:26:00,axn,26.76
2023-01-27T02:27:00,axn,26.76
2023-01-27T02:28:00,axn,26.87
2023-01-27T02:29:00,axn,26.86
2023-01-27T02:30:00,axn,26.79
2023-01-27T02:31:00,axn,26.67
2023-01-27T02:32:00,axn,26.83
2023-01-27T02:33:00,axn,26.78
2023-01-27T02:34:00,axn,26.74
2023-01-27T02:35:00,axn,26.74
2023-01-27T02:36:00,axn,26.81
2023-01-27T02:37:00,axn,26.67
2023-01-27T02:38:00,axn,27.18
2023-01-27T02:39:00,axn,26.97
2023-01-27T02:40:00,axn,27.02
2023-01-27T02:41:00,axn,27.48
2023-01-27T02:42:00,axn,26.96
2023-01-27T02:43:00,axn,26.88
2023-01-27T02:44:00,axn,26.69
2023-01-27T02:45:00,axn,26.45
2023-01-27T02:46:00,axn,26.85
2023-01-27T02:47:00,axn,26.45
2023-01-27T02:48:00,axn,26.86
2023-01-27T02:49:00,axn,26.71
2023-01-27T02:50:00,axn,26.58
2023-01-27T02:51:00,axn,26.60
2023-01-27T02:52:00,axn,26.78
2023-01-27T02:53:00,axn,26.79
2023-01-27T02:54:00,axn,27.13
2023-01-27T02:55:00,axn,26.71
2023-01-27T02:56:00,axn,26.77
2023-01-27T02:57:00,axn,26.63
2023-01-27T02:58:00,axn,26.82
2023-01-27T02:59:00,axn,27.11
2023-01-27T03:00:00,axn,26.68
2023-01-27T03:01:00,axn,26.80
2023-01-27T03:02:00,axn,26.47
2023-01-27T03:03:00,axn,26.69
2023-01-27T03:04:00,axn,27.05
2023-01-27T03:05:00,axn,26.60
2023-01-27T03:06:00,axn,26.51
2023-01-27T03:07:00,axn,27.03
2023-01-27T03:08:00,axn,26.83
2023-01-27T03:09:00,axn,26.94
2023-01-27T03:10:00,axn,26.87
2023-01-27T03:11:00,axn,26.88
2023-01-27T03:12:00,axn,26.83
2023-01-27T03:13:00,axn,26.78
2023-01-27T03:14:00,axn,26.74
2023-01-27T03:15:00,axn,26.68
2023-01-27T03:16:00,axn,27.08
2023-01-27T03:17:00,axn,26.82
2023-01-27T03:18:00,axn,27.04
2023-01-27T03:19:00,axn,26.88
2023-01-27T03:20:00,axn,26.90
2023-01-27T03:21:00,axn,27.28
2023-01-27T03:22:00,axn,26.79
2023-01-27T03:23:00,axn,27.02
2023-01-27T03:24:00,axn,27.31
2023-01-27T03:25:00,axn,26.77
2023-01-27T03:26:00,axn,26.82
2023-01-27T03:27:00,axn,26.66
2023-01-27T03:28:00,axn,26.78
2023-01-27T03:29:00,axn,27.27
2023-01-27T03:30:00,axn,26.96
2023-01-27T03:31:00,axn,27.01
2023-01-27T03:32:00,axn,26.76
2023-01-27T03:33:00,axn,26.78
2023-01-27T03:34:00,axn,26.76
2023-01-27T03:35:00,axn,27.10
2023-01-27T03:36:00,axn,27.00
2023-01-27T03:37:00,axn,26.83
2023-01-27T03:38:00,axn,27.04
2023-01-27T03:39:00,axn,26.96
2023-01-27T03:40:00,axn,27.09
2023-01-27T03:41:00,axn,26.95
2023-01-27T03:42:00,axn,26.76
2023-01-27T03:43:00,axn,26.91
2023-01-27T03:44:00,axn,26.39
2023-01-27T03:45:00,axn,26.32
2023-01-27T03:46:00,axn,26.19
2023-01-27T03:47:00,axn,26.43
2023-01-27T03:48:00,axn,26.83
2023-01-27T03:49:00,axn,26.67
2023-01-27T03:50:00,axn,27.06
2023-01-27T03:51:00,axn,26.53
2023-01-27T03:52:00,axn,26.60
2023-01-27T03:53:00,axn,26.72
2023-01-27T03:54:00,axn,26.69
2023-01-27T03:55:00,axn,26.71
2023-01-27T03:56:00,axn,26.68
2023-01-27T03:57:00,axn,29.59
2023-01-27T03:58:00,axn,27.28
2023-01-27T03:59:00,axn,27.69
2023-01-27T04:00:00,axn,27.51
2023-01-27T04:01:00,axn,27.30
2023-01-27T04:02:00,axn,30.23
2023-01-27T04:03:00,axn,30.11
2023-01-27T04:04:00,axn,26.97
2023-01-27T04:05:00,axn,27.16
2023-01-27T04:06:00,axn,26.94
2023-01-27T04:07:00,axn,26.78
2023-01-27T04:08:00,axn,27.05
2023-01-27T04:09:00,axn,42.51
2023-01-27T04:10:00,axn,41.86
2023-01-27T04:11:00,axn,41.65
2023-01-27T04:12:00,axn,41.43
2023-01-27T04:13:00,axn,41.42
2023-01-27T04:14:00,axn,41.27
2023-01-27T04:15:00,axn,41.03
2023-01-27T04:16:00,axn,26.86
2023-01-27T04:17:00,axn,26.99
2023-01-27T04:18:00,axn,26.83
2023-01-27T04:19:00,axn,27.21
2023-01-27T04:20:00,axn,26.93
2023-01-27T04:21:00,axn,27.03
2023-01-27T04:22:00,axn,26.95
2023-01-27T04:23:00,axn,26.84
2023-01-27T04:24:00,axn,26.96
2023-01-27T04:25:00,axn,26.95
2023-01-27T04:26:00,axn,27.17
2023-01-27T04:27:00,axn,27.07
2023-01-27T04:28:00,axn,27.00
2023-01-27T04:29:00,axn,27.25
2023-01-27T04:30:00,axn,26.95
2023-01-27T04:31:00,axn,26.63
2023-01-27T04:32:00,axn,26.68
2023-01-27T04:33:00,axn,26.64
2023-01-27T04:34:00,axn,26.32
2023-01-27T04:35:00,axn,26.56
2023-01-27T04:36:00,axn,26.07
2023-01-27T04:37:00,axn,26.27
2023-01-27T04:38:00,axn,26.61
2023-01-27T04:39:00,axn,26.48
2023-01-27T04:40:00,axn,26.42
2023-01-27T04:41:00,axn,26.37
2023-01-27T04:42:00,axn,26.63
2023-01-27T04:43:00,axn,26.35
2023-01-27T04:44:00,axn,26.64
2023-01-27T04:45:00,axn,26.51
2023-01-27T04:46:00,axn,26.60
2023-01-27T04:47:00,axn,26.65
2023-01-27T04:48:00,axn,27.19
2023-01-27T04:49:00,axn,26.63
2023-01-27T04:50:00,axn,26.51
2023-01-27T04:51:00,axn,43.52
2023-01-27T04:52:00,axn,26.53
2023-01-27T04:53:00,axn,26.53
2023-01-27T04:54:00,axn,26.52
2023-01-27T04:55:00,axn,26.58
2023-01-27T04:56:00,axn,26.56
2023-01-27T04:57:00,axn,26.62
2023-01-27T04:58:00,axn,26.75
2023-01-27T04:59:00,axn,26.46
2023-01-27T05:00:00,axn,26.02
2023-01-27T05:01:00,axn,25.29
2023-01-27T05:02:00,axn,24.72
2023-01-27T05:03:00,axn,24.71
2023-01-27T05:04:00,axn,25.07
2023-01-27T05:05:00,axn,24.81
2023-01-27T05:06:00,axn,24.46
2023-01-27T05:07:00,axn,24.33
2023-01-27T05:08:00,axn,35.89
2023-01-27T05:09:00,axn,24.93
2023-01-27T05:10:00,axn,25.64
2023-01-27T05:11:00,axn,25.55
2023-01-27T05:12:00,axn,25.83
2023-01-27T05:13:00,axn,25.63
2023-01-27T05:14:00,axn,26.15
2023-01-27T05:15:00,axn,25.86
2023-01-27T05:16:00,axn,25.36
2023-01-27T05:17:00,axn,25.30
2023-01-27T05:18:00,axn,25.54
2023-01-27T05:19:00,axn,25.31
2023-01-27T05:20:00,axn,25.32
2023-01-27T05:21:00,axn,25.16
2023-01-27T05:22:00,axn,25.39
2023-01-27T05:23:00,axn,25.24
2023-01-27T05:24:00,axn,24.66
2023-01-27T05:25:00,axn,25.17
2023-01-27T05:26:00,axn,25.22
2023-01-27T05:27:00,axn,25.04
2023-01-27T05:28:00,axn,25.50
2023-01-27T05:29:00,axn,25.16
2023-01-27T05:30:00,axn,25.23
2023-01-27T05:31:00,axn,28.19
2023-01-27T05:32:00,axn,30.05
2023-01-27T05:33:00,axn,30.46
2023-01-27T05:34:00,axn,30.05
2023-01-27T05:35:00,axn,29.66
2023-01-27T05:36:00,axn,29.54
2023-01-27T05:37:00,axn,29.57
2023-01-27T05:38:00,axn,29.76
2023-01-27T05:39:00,axn,29.75
2023-01-27T05:40:00,axn,29.59
2023-01-27T05:41:00,axn,29.74
2023-01-27T05:42:00,axn,29.57
2023-01-27T05:43:00,axn,29.05
2023-01-27T05:44:00,axn,29.53
2023-01-27T05:45:00,axn,29.41
2023-01-27T05:46:00,axn,29.41
2023-01-27T05:47:00,axn,29.12
2023-01-27T05:48:00,axn,29.22
2023-01-27T05:49:00,axn,29.45
2023-01-27T05:50:00,axn,29.48
2023-01-27T05:51:00,axn,29.89
2023-01-27T05:52:00,axn,29.44
2023-01-27T05:53:00,axn,30.03
2023-01-27T05:54:00,axn,30.01
2023-01-27T05:55:00,axn,29.57
2023-01-27T05:56:00,axn,29.55
2023-01-27T05:57:00,axn,29.64
2023-01-27T05:58:00,axn,29.63
2023-01-27T05:59:00,axn,30.08
2023-01-27T06:00:00,axn,29.92
2023-01-27T06:01:00,axn,30.14
2023-01-27T06:02:00,axn,30.87
2023-01-27T06:03:00,axn,30.86
2023-01-27T06:04:00,axn,30.51
2023-01-27T06:05:00,axn,30.08
2023-01-27T06:06:00,axn,30.10
2023-01-27T06:07:00,axn,29.27
2023-01-27T06:08:00,axn,29.44
2023-01-27T06:09:00,axn,29.74
2023-01-27T06:10:00,axn,29.55
2023-01-27T06:11:00,axn,29.42
2023-01-27T06:12:00,axn,29.43
2023-01-27T06:13:00,axn,29.87
2023-01-27T06:14:00,axn,29.68
2023-01-27T06:15:00,axn,29.58
2023-01-27T06:16:00,axn,29.48
2023-01-27T06:17:00,axn,29.68
2023-01-27T06:18:00,axn,29.27
2023-01-27T06:19:00,axn,29.06
2023-01-27T06:20:00,axn,29.27
2023-01-27T06:21:00,axn,29.18
2023-01-27T06:22:00,axn,29.25
2023-01-27T06:23:00,axn,28.92
2023-01-27T06:24:00,axn,28.83
2023-01-27T06:25:00,axn,28.61
2023-01-27T06:26:00,axn,28.68
2023-01-27T06:27:00,axn,28.62
2023-01-27T06:28:00,axn,28.64
2023-01-27T06:29:00,axn,28.85
2023-01-27T06:30:00,axn,28.64
2023-01-27T06:31:00,axn,28.01
2023-01-27T06:32:00,axn,28.14
2023-01-27T06:33:00,axn,28.30
2023-01-27T06:34:00,axn,27.87
2023-01-27T06:35:00,axn,27.72
2023-01-27T06:36:00,axn,27.77
2023-01-27T06:37:00,axn,27.89
2023-01-27T06:38:00,axn,28.37
2023-01-27T06:39:00,axn,29.01
2023-01-27T06:40:00,axn,28.69
2023-01-27T06:41:00,axn,30.23
2023-01-27T06:42:00,axn,30.26
2023-01-27T06:43:00,axn,40.86
2023-01-27T06:44:00,axn,40.65
2023-01-27T06:45:00,axn,40.74
2023-01-27T06:46:00,axn,40.71
2023-01-27T06:47:00,axn,33.63
2023-01-27T06:48:00,axn,33.27
2023-01-27T06:49:00,axn,30.56
2023-01-27T06:50:00,axn,30.77
2023-01-27T06:51:00,axn,31.06
2023-01-27T06:52:00,axn,31.16
2023-01-27T06:53:00,axn,31.40
2023-01-27T06:54:00,axn,31.25
2023-01-27T06:55:00,axn,31.08
2023-01-27T06:56:00,axn,31.18
2023-01-27T06:57:00,axn,31.04
2023-01-27T06:58:00,axn,31.07
2023-01-27T06:59:00,axn,31.03
2023-01-27T07:00:00,axn,30.57
2023-01-27T07:01:00,axn,33.84
2023-01-27T07:02:00,axn,38.05
2023-01-27T07:03:00,axn,39.32
2023-01-27T07:04:00,axn,35.24
2023-01-27T07:05:00,axn,35.08
2023-01-27T07:06:00,axn,35.11
2023-01-27T07:07:00,axn,35.24
2023-01-27T07:08:00,axn,35.17
2023-01-27T07:09:00,axn,35.25
2023-01-27T07:10:00,axn,34.83
2023-01-27T07:11:00,axn,34.72
2023-01-27T07:12:00,axn,34.38
2023-01-27T07:13:00,axn,35.37
2023-01-27T07:14:00,axn,35.13
2023-01-27T07:15:00,axn,35.38
2023-01-27T07:16:00,axn,35.48
2023-01-27T07:17:00,axn,35.29
2023-01-27T07:18:00,axn,35.19
2023-01-27T07:19:00,axn,35.25
2023-01-27T07:20:00,axn,35.55
2023-01-27T07:21:00,axn,35.25
2023-01-27T07:22:00,axn,35.23
2023-01-27T07:23:00,axn,35.13
2023-01-27T07:24:00,axn,34.97
2023-01-27T07:25:00,axn,34.98
2023-01-27T07:26:00,axn,34.74
2023-01-27T07:27:00,axn,34.98
2023-01-27T07:28:00,axn,35.19
2023-01-27T07:29:00,axn,35.22
2023-01-27T07:30:00,axn,35.14
2023-01-27T07:31:00,axn,35.35
2023-01-27T07:32:00,axn,35.48
2023-01-27T07:33:00,axn,35.23
2023-01-27T07:34:00,axn,35.11
2023-01-27T07:35:00,axn,40.78
2023-01-27T07:36:00,axn,41.00
2023-01-27T07:37:00,axn,40.83
2023-01-27T07:38:00,axn,34.93
2023-01-27T07:39:00,axn,35.44
2023-01-27T07:40:00,axn,35.23
2023-01-27T07:41:00,axn,35.01
2023-01-27T07:42:00,axn,35.28
2023-01-27T07:43:00,axn,35.02
2023-01-27T07:44:00,axn,34.82
2023-01-27T07:45:00,axn,35.05
2023-01-27T07:46:00,axn,35.36
2023-01-27T07:47:00,axn,34.87
2023-01-27T07:48:00,axn,36.07
2023-01-27T07:49:00,axn,34.67
2023-01-27T07:50:00,axn,35.14
2023-01-27T07:51:00,axn,34.24
2023-01-27T07:52:00,axn,35.00
2023-01-27T07:53:00,axn,34.60
2023-01-27T07:54:00,axn,34.65
2023-01-27T07:55:00,axn,34.97
2023-01-27T07:56:00,axn,34.82
2023-01-27T07:57:00,axn,34.70
2023-01-27T07:58:00,axn,35.18
2023-01-27T07:59:00,axn,35.39
2023-01-27T08:00:00,axn,36.07
2023-01-27T08:01:00,axn,37.90
2023-01-27T08:02:00,axn,39.42
2023-01-27T08:03:00,axn,44.21
2023-01-27T08:04:00,axn,43.92
2023-01-27T08:05:00,axn,43.88
2023-01-27T08:06:00,axn,40.05
2023-01-27T08:07:00,axn,40.02
2023-01-27T08:08:00,axn,40.69
2023-01-27T08:09:00,axn,40.07
2023-01-27T08:10:00,axn,39.99
2023-01-27T08:11:00,axn,40.27
2023-01-27T08:12:00,axn,41.18
2023-01-27T08:13:00,axn,40.35
2023-01-27T08:14:00,axn,58.41
2023-01-27T08:15:00,axn,40.91
2023-01-27T08:16:00,axn,41.37
2023-01-27T08:17:00,axn,43.36
2023-01-27T08:18:00,axn,43.35
2023-01-27T08:19:00,axn,43.67
2023-01-27T08:20:00,axn,42.23
2023-01-27T08:21:00,axn,41.41
2023-01-27T08:22:00,axn,41.56
2023-01-27T08:23:00,axn,42.01
2023-01-27T08:24:00,axn,42.35
2023-01-27T08:25:00,axn,41.97
2023-01-27T08:26:00,axn,42.08
2023-01-27T08:27:00,axn,41.97
2023-01-27T08:28:00,axn,42.22
2023-01-27T08:29:00,axn,42.82
2023-01-27T08:30:00,axn,42.18
2023-01-27T08:31:00,axn,41.85
2023-01-27T08:32:00,axn,42.42
2023-01-27T08:33:00,axn,42.07
2023-01-27T08:34:00,axn,56.45
2023-01-27T08:35:00,axn,55.88
2023-01-27T08:36:00,axn,55.61
2023-01-27T08:37:00,axn,55.90
2023-01-27T08:38:00,axn,55.59
2023-01-27T08:39:00,axn,59.00
2023-01-27T08:40:00,axn,41.75
2023-01-27T08:41:00,axn,41.86
2023-01-27T08:42:00,axn,42.35
2023-01-27T08:43:00,axn,42.36
2023-01-27T08:44:00,axn,42.38
2023-01-27T08:45:00,axn,42.22
2023-01-27T08:46:00,axn,42.13
2023-01-27T08:47:00,axn,41.89
2023-01-27T08:48:00,axn,41.93
2023-01-27T08:49:00,axn,41.61
2023-01-27T08:50:00,axn,42.16
2023-01-27T08:51:00,axn,41.61
2023-01-27T08:52:00,axn,41.05
2023-01-27T08:53:00,axn,54.63
2023-01-27T08:54:00,axn,40.82
2023-01-27T08:55:00,axn,40.94
2023-01-27T08:56:00,axn,41.44
2023-01-27T08:57:00,axn,41.59
2023-01-27T08:58:00,axn,41.93
2023-01-27T08:59:00,axn,41.95
2023-01-27T09:00:00,axn,42.07
2023-01-27T09:01:00,axn,42.18
2023-01-27T09:02:00,axn,42.65
2023-01-27T09:03:00,axn,43.28
2023-01-27T09:04:00,axn,43.11
2023-01-27T09:05:00,axn,44.57
2023-01-27T09:06:00,axn,44.05
2023-01-27T09:07:00,axn,44.32
2023-01-27T09:08:00,axn,47.27
2023-01-27T09:09:00,axn,49.61
2023-01-27T09:10:00,axn,52.45
2023-01-27T09:11:00,axn,54.70
2023-01-27T09:12:00,axn,54.83
2023-01-27T09:13:00,axn,54.59
2023-01-27T09:14:00,axn,53.85
2023-01-27T09:15:00,axn,53.86
2023-01-27T09:16:00,axn,53.65
2023-01-27T09:17:00,axn,53.92
2023-01-27T09:18:00,axn,53.45
2023-01-27T09:19:00,axn,53.23
2023-01-27T09:20:00,axn,53.97
2023-01-27T09:21:00,axn,53.25
2023-01-27T09:22:00,axn,53.23
2023-01-27T09:23:00,axn,53.52
2023-01-27T09:24:00,axn,54.00
2023-01-27T09:25:00,axn,53.70
2023-01-27T09:26:00,axn,53.81
2023-01-27T09:27:00,axn,53.75
2023-01-27T09:28:00,axn,53.84
2023-01-27T09:29:00,axn,53.85
2023-01-27T09:30:00,axn,53.79
2023-01-27T09:31:00,axn,53.84
2023-01-27T09:32:00,axn,53.88
2023-01-27T09:33:00,axn,53.78
2023-01-27T09:34:00,axn,53.50
2023-01-27T09:35:00,axn,54.14
2023-01-27T09:36:00,axn,53.36
2023-01-27T09:37:00,axn,53.89
2023-01-27T09:38:00,axn,56.53
2023-01-27T09:39:00,axn,53.28
2023-01-27T09:40:00,axn,53.37
2023-01-27T09:41:00,axn,53.45
2023-01-27T09:42:00,axn,53.93
2023-01-27T09:43:00,axn,53.68
2023-01-27T09:44:00,axn,53.62
2023-01-27T09:45:00,axn,52.50
2023-01-27T09:46:00,axn,52.29
2023-01-27T09:47:00,axn,52.32
2023-01-27T09:48:00,axn,52.48
2023-01-27T09:49:00,axn,52.60
2023-01-27T09:50:00,axn,52.82
2023-01-27T09:51:00,axn,53.16
2023-01-27T09:52:00,axn,53.22
2023-01-27T09:53:00,axn,53.59
2023-01-27T09:54:00,axn,53.30
2023-01-27T09:55:00,axn,53.31
2023-01-27T09:56:00,axn,53.47
2023-01-27T09:57:00,axn,53.44
2023-01-27T09:58:00,axn,53.36
2023-01-27T09:59:00,axn,53.34
2023-01-27T10:00:00,axn,69.55
2023-01-27T10:01:00,axn,53.25
2023-01-27T10:02:00,axn,53.27
2023-01-27T10:03:00,axn,53.28
2023-01-27T10:04:00,axn,52.98
2023-01-27T10:05:00,axn,53.50
2023-01-27T10:06:00,axn,53.44
2023-01-27T10:07:00,axn,56.17
2023-01-27T10:08:00,axn,56.38
2023-01-27T10:09:00,axn,56.32
2023-01-27T10:10:00,axn,53.65
2023-01-27T10:11:00,axn,53.68
2023-01-27T10:12:00,axn,53.64
2023-01-27T10:13:00,axn,53.82
2023-01-27T10:14:00,axn,53.80
2023-01-27T10:15:00,axn,53.63
2023-01-27T10:16:00,axn,53.60
2023-01-27T10:17:00,axn,53.83
2023-01-27T10:18:00,axn,52.81
2023-01-27T10:19:00,axn,60.76
2023-01-27T10:20:00,axn,60.57
2023-01-27T10:21:00,axn,60.75
2023-01-27T10:22:00,axn,60.53
2023-01-27T10:23:00,axn,60.29
2023-01-27T10:24:00,axn,60.35
2023-01-27T10:25:00,axn,60.51
2023-01-27T10:26:00,axn,60.25
2023-01-27T10:27:00,axn,61.15
2023-01-27T10:28:00,axn,60.77
2023-01-27T10:29:00,axn,61.17
2023-01-27T10:30:00,axn,60.28
2023-01-27T10:31:00,axn,60.55
2023-01-27T10:32:00,axn,60.41
2023-01-27T10:33:00,axn,60.68
2023-01-27T10:34:00,axn,60.62
2023-01-27T10:35:00,axn,60.52
2023-01-27T10:36:00,axn,60.54
2023-01-27T10:37:00,axn,60.40
2023-01-27T10:38:00,axn,60.33
2023-01-27T10:39:00,axn,60.65
2023-01-27T10:40:00,axn,60.47
2023-01-27T10:41:00,axn,60.83
2023-01-27T10:42:00,axn,61.31
2023-01-27T10:43:00,axn,60.83
2023-01-27T10:44:00,axn,60.66
2023-01-27T10:45:00,axn,60.89
2023-01-27T10:46:00,axn,61.07
2023-01-27T10:47:00,axn,60.83
2023-01-27T10:48:00,axn,60.58
2023-01-27T10:49:00,axn,60.58
2023-01-27T10:50:00,axn,60.33
2023-01-27T10:51:00,axn,60.78
2023-01-27T10:52:00,axn,61.11
2023-01-27T10:53:00,axn,61.36
2023-01-27T10:54:00,axn,70.96
2023-01-27T10:55:00,axn,70.92
2023-01-27T10:56:00,axn,70.78
2023-01-27T10:57:00,axn,70.86
2023-01-27T10:58:00,axn,60.98
2023-01-27T10:59:00,axn,60.43
2023-01-27T11:00:00,axn,60.84
2023-01-27T11:01:00,axn,60.97
2023-01-27T11:02:00,axn,60.94
2023-01-27T11:03:00,axn,60.84
2023-01-27T11:04:00,axn,61.16
2023-01-27T11:05:00,axn,61.11
2023-01-27T11:06:00,axn,60.87
2023-01-27T11:07:00,axn,60.14
2023-01-27T11:08:00,axn,60.19
2023-01-27T11:09:00,axn,52.54
2023-01-27T11:10:00,axn,52.15
2023-01-27T11:11:00,axn,67.16
2023-01-27T11:12:00,axn,66.67
2023-01-27T11:13:00,axn,66.72
2023-01-27T11:14:00,axn,66.30
2023-01-27T11:15:00,axn,66.45
2023-01-27T11:16:00,axn,60.99
2023-01-27T11:17:00,axn,60.71
2023-01-27T11:18:00,axn,60.97
2023-01-27T11:19:00,axn,60.77
2023-01-27T11:20:00,axn,60.64
2023-01-27T11:21:00,axn,60.75
2023-01-27T11:22:00,axn,61.08
2023-01-27T11:23:00,axn,61.58
2023-01-27T11:24:00,axn,61.26
2023-01-27T11:25:00,axn,61.28
2023-01-27T11:26:00,axn,60.99
2023-01-27T11:27:00,axn,60.65
2023-01-27T11:28:00,axn,60.71
2023-01-27T11:29:00,axn,60.79
2023-01-27T11:30:00,axn,63.96
2023-01-27T11:31:00,axn,60.87
2023-01-27T11:32:00,axn,60.83
2023-01-27T11:33:00,axn,60.63
2023-01-27T11:34:00,axn,60.63
2023-01-27T11:35:00,axn,60.77
2023-01-27T11:36:00,axn,60.76
2023-01-27T11:37:00,axn,61.22
2023-01-27T11:38:00,axn,61.13
2023-01-27T11:39:00,axn,61.58
2023-01-27T11:40:00,axn,61.26
2023-01-27T11:41:00,axn,61.31
2023-01-27T11:42:00,axn,61.43
2023-01-27T11:43:00,axn,61.09
2023-01-27T11:44:00,axn,60.99
2023-01-27T11:45:00,axn,60.90
2023-01-27T11:46:00,axn,61.03
2023-01-27T11:47:00,axn,61.31
2023-01-27T11:48:00,axn,60.75
2023-01-27T11:49:00,axn,52.59
2023-01-27T11:50:00,axn,52.57
2023-01-27T11:51:00,axn,52.55
2023-01-27T11:52:00,axn,52.86
2023-01-27T11:53:00,axn,52.88
2023-01-27T11:54:00,axn,68.96
2023-01-27T11:55:00,axn,53.03
2023-01-27T11:56:00,axn,52.62
2023-01-27T11:57:00,axn,52.83
2023-01-27T11:58:00,axn,52.83
2023-01-27T11:59:00,axn,52.76
2023-01-27T12:00:00,axn,53.38
2023-01-27T12:01:00,axn,52.85
2023-01-27T12:02:00,axn,53.25
2023-01-27T12:03:00,axn,53.59
2023-01-27T12:04:00,axn,53.94
2023-01-27T12:05:00,axn,54.72
2023-01-27T12:06:00,axn,53.63
2023-01-27T12:07:00,axn,53.52
2023-01-27T12:08:00,axn,53.72
2023-01-27T12:09:00,axn,53.72
2023-01-27T12:10:00,axn,53.63
2023-01-27T12:11:00,axn,53.51
2023-01-27T12:12:00,axn,53.52
2023-01-27T12:13:00,axn,53.45
2023-01-27T12:14:00,axn,53.48
2023-01-27T12:15:00,axn,53.98
2023-01-27T12:16:00,axn,53.75
2023-01-27T12:17:00,axn,53.44
2023-01-27T12:18:00,axn,53.51
2023-01-27T12:19:00,axn,53.50
2023-01-27T12:20:00,axn,54.12
2023-01-27T12:21:00,axn,53.69
2023-01-27T12:22:00,axn,53.95
2023-01-27T12:23:00,axn,54.29
2023-01-27T12:24:00,axn,54.25
2023-01-27T12:25:00,axn,54.17
2023-01-27T12:26:00,axn,61.93
2023-01-27T12:27:00,axn,62.22
2023-01-27T12:28:00,axn,62.56
2023-01-27T12:29:00,axn,62.19
2023-01-27T12:30:00,axn,62.41
2023-01-27T12:31:00,axn,62.28
2023-01-27T12:32:00,axn,62.19
2023-01-27T12:33:00,axn,51.07
2023-01-27T12:34:00,axn,51.76
2023-01-27T12:35:00,axn,51.66
2023-01-27T12:36:00,axn,51.14
2023-01-27T12:37:00,axn,53.98
2023-01-27T12:38:00,axn,54.62
2023-01-27T12:39:00,axn,54.32
2023-01-27T12:40:00,axn,51.90
2023-01-27T12:41:00,axn,52.09
2023-01-27T12:42:00,axn,52.27
2023-01-27T12:43:00,axn,51.80
2023-01-27T12:44:00,axn,51.17
2023-01-27T12:45:00,axn,50.54
2023-01-27T12:46:00,axn,50.78
2023-01-27T12:47:00,axn,50.93
2023-01-27T12:48:00,axn,51.36
2023-01-27T12:49:00,axn,51.24
2023-01-27T12:50:00,axn,51.53
2023-01-27T12:51:00,axn,50.90
2023-01-27T12:52:00,axn,50.98
2023-01-27T12:53:00,axn,51.45
2023-01-27T12:54:00,axn,51.40
2023-01-27T12:55:00,axn,50.85
2023-01-27T12:56:00,axn,50.88
2023-01-27T12:57:00,axn,51.35
2023-01-27T12:58:00,axn,54.08
2023-01-27T12:59:00,axn,55.02
2023-01-27T13:00:00,axn,52.10
2023-01-27T13:01:00,axn,52.12
2023-01-27T13:02:00,axn,51.57
2023-01-27T13:03:00,axn,51.17
2023-01-27T13:04:00,axn,51.11
2023-01-27T13:05:00,axn,51.30
2023-01-27T13:06:00,axn,51.23
2023-01-27T13:07:00,axn,51.24
2023-01-27T13:08:00,axn,51.65
2023-01-27T13:09:00,axn,50.93
2023-01-27T13:10:00,axn,50.94
2023-01-27T13:11:00,axn,52.76
2023-01-27T13:12:00,axn,50.92
2023-01-27T13:13:00,axn,50.66
2023-01-27T13:14:00,axn,50.58
2023-01-27T13:15:00,axn,50.37
2023-01-27T13:16:00,axn,50.84
2023-01-27T13:17:00,axn,50.72
2023-01-27T13:18:00,axn,50.38